Weather History for Aurora, OR

Change the Weather History Date:

Thursday, May 2, 2013

  Actual Average Record
Temperature  
Mean Temperature 64 °F -  
Max Temperature 79 °F - 79 °F (2013)
Min Temperature 46 °F - 34 °F (2006)
Degree Days  
Heating Degree Days 2    
Month to date heating degree days 15  
Since 1 July heating degree days 4064  
Cooling Degree Days 0    
Month to date cooling degree days 0  
Year to date cooling degree days 0  
Growing Degree Days 14 (Base 50)    
Moisture  
Dew Point 36 °F    
Average Humidity 38    
Maximum Humidity 54    
Minimum Humidity 21    
Precipitation  
Precipitation 0.00 in - 0.54 in (1963)
Month to date precipitation 0.00  
Year to date precipitation 7.91  
Sea Level Pressure  
Sea Level Pressure 30.35 in    
Wind  
Wind Speed 8 mph (North)    
Max Wind Speed 15 mph    
Max Gust Speed 21 mph    
Visibility 10 miles    
Events      
T = Trace of Precipitation, MM = Missing Value Source: NWS Daily Summary

Daily Weather History Graph

Daily Weather History Graph

Search for Another Location

Airport:

Trip Planner

Search our weather history database for the weather conditions in past years. The results will help you decide how hot, cold, wet, or windy it might be!

Date:

Astronomy

May. 02, 2013 Rise Set
Actual Time 5:57 AM PDT 8:18 PM PDT
Civil Twilight 5:25 AM PDT 8:51 PM PDT
Nautical Twilight 4:44 AM PDT 9:32 PM PDT
Astronomical Twilight 3:58 AM PDT 10:18 PM PDT
Moon 2:09 AM PDT (5/2) 12:55 PM PDT (5/2)
Length of Visible Light 15h 26m
Length of Day
14h 21m
Waning Gibbous, 46% of the Moon is Illuminated
May 2
Waning Gibbous
May 9
New
May 17
First Quarter
May 24
Full
May 31
Last Quarter

Hourly Weather History & Observations

Time (PDT) Temp. Dew Point Humidity Pressure Visibility Wind Dir Wind Speed Gust Speed Precip Events Conditions
12:53 AM 55.9 °F 34.0 °F 44% 30.44 in 10.0 mi NNE 11.5 mph - N/A   Clear
1:53 AM 52.0 °F 34.0 °F 50% 30.44 in 10.0 mi North 10.4 mph - N/A   Clear
2:53 AM 51.1 °F 33.1 °F 50% 30.43 in 10.0 mi North 9.2 mph - N/A   Clear
3:53 AM 50.0 °F 33.1 °F 52% 30.44 in 10.0 mi NNE 9.2 mph - N/A   Clear
4:53 AM 48.0 °F 32.0 °F 54% 30.43 in 10.0 mi North 5.8 mph - N/A   Clear
5:53 AM 48.9 °F 30.9 °F 50% 30.42 in 10.0 mi North 6.9 mph - N/A   Clear
6:53 AM 50.0 °F 32.0 °F 50% 30.42 in 10.0 mi North 8.1 mph - N/A   Clear
7:53 AM 54.0 °F 34.0 °F 47% 30.42 in 10.0 mi NNE 8.1 mph - N/A   Clear
8:53 AM 57.9 °F 35.1 °F 42% 30.40 in 10.0 mi North 6.9 mph - N/A   Clear
9:53 AM 63.0 °F 35.1 °F 35% 30.39 in 10.0 mi North 12.7 mph - N/A   Clear
10:53 AM 66.0 °F 35.1 °F 32% 30.37 in 10.0 mi North 12.7 mph - N/A   Clear
12:53 PM 72.0 °F 37.9 °F 29% 30.34 in 10.0 mi Variable 6.9 mph - N/A   Clear
1:53 PM 75.0 °F 37.9 °F 26% 30.31 in 10.0 mi NNE 10.4 mph - N/A   Clear
2:53 PM 77.0 °F 37.9 °F 24% 30.30 in 10.0 mi North 8.1 mph - N/A   Clear
3:53 PM 78.1 °F 35.1 °F 21% 30.28 in 10.0 mi NNW 5.8 mph - N/A   Clear
4:53 PM 79.0 °F 39.0 °F 24% 30.26 in 10.0 mi North 5.8 mph - N/A   Clear
5:53 PM 79.0 °F 37.9 °F 23% 30.25 in 10.0 mi North 9.2 mph - N/A   Clear
6:53 PM 73.9 °F 34.0 °F 23% 30.25 in 10.0 mi North 9.2 mph - N/A   Clear
7:53 PM 70.0 °F 37.0 °F 30% 30.26 in 10.0 mi North 12.7 mph - N/A   Clear
8:53 PM 66.9 °F 37.9 °F 34% 30.27 in 10.0 mi North 11.5 mph - N/A   Clear
9:53 PM 64.0 °F 37.0 °F 37% 30.27 in 10.0 mi North 9.2 mph - N/A   Clear
10:53 PM 63.0 °F 39.9 °F 43% 30.28 in 10.0 mi NNW 3.5 mph - N/A   Clear
11:53 PM 60.1 °F 41.0 °F 49% 30.29 in 10.0 mi North 8.1 mph - N/A   Clear